Morgantown, WV

12:07 AM EST on December 17, 2017 (GMT -0500)
Morgantown Municipal-Hart

Weather History for KMGW - February, 2005

Change the Weather History Date:

Friday, February 18, 2005

  Actual Average Record
Temperature  
Mean Temperature 22 °F 35 °F  
Max Temperature 25 °F 44 °F 73 °F (1981)
Min Temperature 17 °F 26 °F -2 °F (1973)
Degree Days  
Heating Degree Days 44 30  
Month to date heating degree days 572  
Since 1 July heating degree days 3599  
Cooling Degree Days 0 0  
Month to date cooling degree days 0  
Year to date cooling degree days 0  
Moisture  
Dew Point 7 °F    
Average Humidity 56    
Maximum Humidity 86    
Minimum Humidity 44    
Precipitation  
Precipitation 0.00 in 0.10 in 2.47 in (2000)
Month to date precipitation 1.63  
Year to date precipitation 4.44  
Sea Level Pressure  
Sea Level Pressure 30.23 in    
Wind  
Wind Speed 7 mph (WNW)    
Max Wind Speed 13 mph    
Max Gust Speed 22 mph    
Visibility 9 miles    
Events Snow    
T = Trace of Precipitation, MM = Missing Value Source: NWS Daily Summary

Daily Weather History Graph

Daily Weather History Graph

Search for Another Location

Airport or City:

Trip Planner

Search our weather history database for the weather conditions in past years. The results will help you decide how hot, cold, wet, or windy it might be!

Date:

Astronomy

Feb. 18, 2005 Rise Set
Actual Time 7:07 AM EST 5:59 PM EST
Civil Twilight 6:40 AM EST 6:27 PM EST
Nautical Twilight 6:09 AM EST 6:58 PM EST
Astronomical Twilight 5:37 AM EST 7:29 PM EST
Moon 12:41 PM EST (2/18) 3:50 AM EST (2/18)
Length of Visible Light 11h 46m
Length of Day
10h 51m
Waxing Gibbous, 75% of the Moon is Illuminated
Feb 18
Waxing Gibbous
Feb 23
Full
Mar 3
Last Quarter
Mar 10
New
Mar 17
First Quarter

Hourly Weather History & Observations

Time (EST) Temp. Windchill Dew Point Humidity Pressure Visibility Wind Dir Wind Speed Gust Speed Precip Events Conditions
12:53 AM 21.9 °F 13.4 °F 12.0 °F 66% 30.14 in 4.0 mi WNW 6.9 mph - 0.00 in Snow Light Snow
1:53 AM 21.0 °F 10.6 °F 15.1 °F 78% 30.14 in 1.8 mi NW 9.2 mph 16.1 mph 0.00 in Snow Light Snow
2:05 AM 19.4 °F 9.5 °F 15.8 °F 86% 30.10 in 1.0 mi WNW 8.1 mph - 0.00 in Snow Light Snow
2:15 AM 19.4 °F 8.6 °F 14.0 °F 80% 30.10 in 2.0 mi West 9.2 mph - 0.00 in Snow Light Snow
2:20 AM 19.4 °F 7.9 °F 12.2 °F 74% 30.10 in 8.0 mi WNW 10.4 mph 17.3 mph 0.00 in Snow Light Snow
2:53 AM 19.9 °F 7.9 °F 6.1 °F 55% 30.16 in 10.0 mi WNW 11.5 mph 21.9 mph 0.00 in   Overcast
3:53 AM 19.0 °F 8.2 °F 3.0 °F 50% 30.17 in 10.0 mi West 9.2 mph - 0.00 in   Mostly Cloudy
4:53 AM 18.0 °F 7.7 °F 3.0 °F 52% 30.20 in 10.0 mi West 8.1 mph - N/A   Overcast
5:53 AM 18.0 °F 11.1 °F 3.0 °F 52% 30.21 in 10.0 mi West 4.6 mph - N/A   Overcast
6:53 AM 18.0 °F 11.1 °F 3.9 °F 54% 30.22 in 10.0 mi Variable 4.6 mph - N/A   Overcast
7:53 AM 18.0 °F 8.7 °F 5.0 °F 57% 30.23 in 10.0 mi WNW 6.9 mph - N/A   Overcast
8:53 AM 19.0 °F 11.1 °F 7.0 °F 59% 30.25 in 10.0 mi West 5.8 mph - N/A   Mostly Cloudy
9:53 AM 19.9 °F 7.3 °F 6.1 °F 55% 30.25 in 10.0 mi WNW 12.7 mph 18.4 mph N/A   Overcast
10:53 AM 21.0 °F 12.4 °F 3.0 °F 46% 30.27 in 10.0 mi NW 6.9 mph 16.1 mph N/A   Mostly Cloudy
11:53 AM 23.0 °F 11.7 °F 5.0 °F 46% 30.27 in 10.0 mi West 11.5 mph 19.6 mph N/A   Mostly Cloudy
12:53 PM 23.0 °F 12.4 °F 3.9 °F 44% 30.26 in 10.0 mi NW 10.4 mph 17.3 mph N/A   Mostly Cloudy
1:53 PM 24.1 °F 14.4 °F 5.0 °F 44% 30.25 in 10.0 mi NW 9.2 mph - N/A   Overcast
2:53 PM 24.1 °F 15.2 °F 5.0 °F 44% 30.26 in 10.0 mi West 8.1 mph - N/A   Overcast
3:53 PM 24.1 °F 16.0 °F 7.0 °F 48% 30.28 in 10.0 mi Variable 6.9 mph - N/A   Overcast
4:53 PM 25.0 °F 15.5 °F 6.1 °F 45% 30.29 in 10.0 mi West 9.2 mph - N/A   Mostly Cloudy
5:53 PM 24.1 °F 18.2 °F 5.0 °F 44% 30.28 in 10.0 mi Variable 4.6 mph - N/A   Clear
6:53 PM 23.0 °F 18.4 °F 5.0 °F 46% 30.30 in 10.0 mi WNW 3.5 mph - N/A   Clear
7:53 PM 21.9 °F - 7.0 °F 53% 30.31 in 10.0 mi Calm Calm - N/A   Clear
8:53 PM 21.0 °F - 6.1 °F 53% 30.31 in 10.0 mi Calm Calm - N/A   Clear
9:53 PM 19.0 °F - 9.0 °F 65% 30.30 in 10.0 mi Calm Calm - N/A   Clear
10:53 PM 18.0 °F - 6.1 °F 60% 30.30 in 10.0 mi Calm Calm - N/A   Clear
11:53 PM 17.1 °F - 6.1 °F 62% 30.30 in 10.0 mi Calm Calm - N/A   Clear